Time,TemperatureF,DewpointF,PressureIn,WindDirection,WindDirectionDegrees,WindSpeedMPH,WindSpeedGustMPH,Humidity,HourlyPrecipIn,Conditions,Clouds,dailyrainin,SolarRadiationWatts/m^2,SoftwareType,DateUTC
2013-06-06 00:01:00,56.6,51.5,30.02,NE,45,0.0,0.0,83,0.00,,,0.00,0.0,custom,2013-06-06 07:01:00,
2013-06-06 00:06:00,56.5,51.4,30.02,NE,46,0.0,0.0,83,0.00,,,0.00,0.0,custom,2013-06-06 07:06:00,
2013-06-06 00:11:00,56.5,51.4,30.02,NE,45,0.0,0.0,83,0.00,,,0.00,0.0,custom,2013-06-06 07:11:00,
2013-06-06 00:16:00,56.5,51.4,30.02,NE,46,0.0,0.0,83,0.00,,,0.00,0.0,custom,2013-06-06 07:16:00,
2013-06-06 00:21:00,56.5,51.4,30.02,NE,45,0.0,0.0,83,0.00,,,0.00,0.0,custom,2013-06-06 07:21:00,
2013-06-06 00:26:00,56.6,51.5,30.02,NE,45,0.0,0.0,83,0.00,,,0.00,0.0,custom,2013-06-06 07:26:00,
2013-06-06 00:31:00,56.6,51.8,30.02,NE,45,0.0,0.0,84,0.00,,,0.00,0.0,custom,2013-06-06 07:31:00,
2013-06-06 00:36:00,56.6,51.5,30.02,NE,45,0.0,0.0,83,0.00,,,0.00,0.0,custom,2013-06-06 07:36:00,
2013-06-06 00:41:00,56.7,51.9,30.02,NE,44,0.0,0.0,84,0.00,,,0.00,0.0,custom,2013-06-06 07:41:00,
2013-06-06 00:46:00,56.7,51.9,30.01,NE,44,0.0,0.0,84,0.00,,,0.00,0.0,custom,2013-06-06 07:46:00,
2013-06-06 00:51:00,56.8,51.7,30.01,NNE,28,0.0,0.0,83,0.00,,,0.00,0.0,custom,2013-06-06 07:51:00,
2013-06-06 00:56:00,56.8,51.7,30.01,NNE,29,0.0,0.0,83,0.00,,,0.00,0.0,custom,2013-06-06 07:56:00,
2013-06-06 01:01:00,56.8,51.7,30.01,NNE,29,0.0,0.0,83,0.00,,,0.00,0.0,custom,2013-06-06 08:01:00,
2013-06-06 01:06:00,56.8,51.7,30.01,NNE,28,0.0,0.0,83,0.00,,,0.00,0.0,custom,2013-06-06 08:06:00,
2013-06-06 01:11:00,56.8,51.7,30.01,NNE,28,0.0,0.0,83,0.00,,,0.00,0.0,custom,2013-06-06 08:11:00,
2013-06-06 01:16:00,56.8,51.7,30.01,NNE,28,0.0,0.0,83,0.00,,,0.00,0.0,custom,2013-06-06 08:16:00,
2013-06-06 01:21:00,56.9,51.8,30.01,NNE,28,0.0,0.0,83,0.00,,,0.00,0.0,custom,2013-06-06 08:21:00,
2013-06-06 01:26:00,56.9,51.8,30.01,NNE,28,0.0,0.0,83,0.00,,,0.00,0.0,custom,2013-06-06 08:26:00,
2013-06-06 01:31:00,56.8,51.7,30.01,NNE,28,0.0,0.0,83,0.00,,,0.00,0.0,custom,2013-06-06 08:31:00,
2013-06-06 01:36:00,56.8,51.7,30.01,NNE,28,0.0,0.0,83,0.00,,,0.00,0.0,custom,2013-06-06 08:36:00,
2013-06-06 01:41:00,56.8,51.7,30.01,NNE,28,0.0,0.0,83,0.00,,,0.00,0.0,custom,2013-06-06 08:41:00,
2013-06-06 01:46:00,56.9,51.8,30.01,NNE,28,0.0,0.0,83,0.00,,,0.00,0.0,custom,2013-06-06 08:46:00,
2013-06-06 01:51:00,56.9,51.8,30.00,NNE,28,0.0,0.0,83,0.00,,,0.00,0.0,custom,2013-06-06 08:51:00,
2013-06-06 01:56:00,56.9,51.8,30.00,NNE,28,0.0,0.0,83,0.00,,,0.00,0.0,custom,2013-06-06 08:56:00,
2013-06-06 02:01:00,56.9,51.8,30.00,NNE,28,0.0,0.0,83,0.00,,,0.00,0.0,custom,2013-06-06 09:01:00,
2013-06-06 02:06:00,56.9,51.8,30.00,NNE,28,0.0,0.0,83,0.00,,,0.00,0.0,custom,2013-06-06 09:06:00,
2013-06-06 02:11:00,56.9,51.8,30.00,NNE,28,0.0,0.0,83,0.00,,,0.00,0.0,custom,2013-06-06 09:11:00,
2013-06-06 02:16:00,56.9,51.8,30.00,NNE,28,0.0,0.0,83,0.00,,,0.00,0.0,custom,2013-06-06 09:16:00,
2013-06-06 02:21:00,57.0,51.9,30.00,NNE,28,0.0,0.0,83,0.00,,,0.00,0.0,custom,2013-06-06 09:21:00,
2013-06-06 02:26:00,57.0,51.9,30.00,NNE,28,0.0,0.0,83,0.00,,,0.00,0.0,custom,2013-06-06 09:26:00,
2013-06-06 02:31:00,57.1,52.0,30.00,NNE,28,0.0,0.0,83,0.00,,,0.00,0.0,custom,2013-06-06 09:31:00,
2013-06-06 02:36:00,57.1,52.0,30.00,NNE,28,0.0,0.0,83,0.00,,,0.00,0.0,custom,2013-06-06 09:36:00,
2013-06-06 02:41:00,57.1,52.0,30.00,NNE,28,0.0,0.0,83,0.00,,,0.00,0.0,custom,2013-06-06 09:41:00,
2013-06-06 02:46:00,57.1,52.0,30.00,NNE,28,0.0,0.0,83,0.00,,,0.00,0.0,custom,2013-06-06 09:46:00,
2013-06-06 02:51:00,57.1,52.0,30.00,NNE,28,0.0,0.0,83,0.00,,,0.00,0.0,custom,2013-06-06 09:51:00,
2013-06-06 02:56:00,57.2,52.1,30.00,NNE,28,0.0,0.0,83,0.00,,,0.00,0.0,custom,2013-06-06 09:56:00,
2013-06-06 03:01:00,57.2,52.1,30.00,NNE,28,0.0,0.0,83,0.00,,,0.00,0.0,custom,2013-06-06 10:01:00,
2013-06-06 03:06:00,57.2,52.1,30.00,NNE,28,0.0,0.0,83,0.00,,,0.00,0.0,custom,2013-06-06 10:06:00,
2013-06-06 03:11:00,57.2,52.4,30.00,NNE,28,0.0,0.0,84,0.00,,,0.00,0.0,custom,2013-06-06 10:11:00,
2013-06-06 03:16:00,57.2,52.4,30.00,NNE,28,0.0,0.0,84,0.00,,,0.00,0.0,custom,2013-06-06 10:16:00,
2013-06-06 03:21:00,57.2,52.4,30.00,NNE,28,0.0,0.0,84,0.00,,,0.00,0.0,custom,2013-06-06 10:21:00,
2013-06-06 03:26:00,57.2,52.4,29.99,NNE,28,0.0,0.0,84,0.00,,,0.00,0.0,custom,2013-06-06 10:26:00,
2013-06-06 03:31:00,57.2,52.4,29.99,North,360,0.0,0.0,84,0.00,,,0.00,0.0,custom,2013-06-06 10:31:00,
2013-06-06 03:36:00,57.2,52.4,29.99,North,360,0.0,0.0,84,0.00,,,0.00,0.0,custom,2013-06-06 10:36:00,
2013-06-06 03:41:00,57.2,52.4,29.99,North,360,0.0,0.0,84,0.00,,,0.00,0.0,custom,2013-06-06 10:41:00,
2013-06-06 03:46:00,57.2,52.4,29.99,North,360,0.0,0.0,84,0.00,,,0.00,0.0,custom,2013-06-06 10:46:00,
2013-06-06 03:51:00,57.3,52.5,29.99,NE,49,0.0,0.0,84,0.00,,,0.00,0.0,custom,2013-06-06 10:51:00,
2013-06-06 03:56:00,57.3,52.5,29.99,NE,51,0.0,0.0,84,0.00,,,0.00,0.0,custom,2013-06-06 10:56:00,
2013-06-06 04:06:00,57.3,52.5,29.99,NE,51,0.0,0.0,84,0.00,,,0.00,0.0,custom,2013-06-06 11:06:00,
2013-06-06 04:11:00,57.3,52.5,29.99,NE,51,0.0,0.0,84,0.00,,,0.00,0.0,custom,2013-06-06 11:11:00,
2013-06-06 04:16:00,57.3,52.5,29.99,NE,51,0.0,0.0,84,0.00,,,0.00,0.0,custom,2013-06-06 11:16:00,
2013-06-06 04:21:00,57.2,52.4,29.99,NE,51,0.0,0.0,84,0.00,,,0.00,0.0,custom,2013-06-06 11:21:00,
2013-06-06 04:26:00,57.2,52.4,29.99,NE,51,0.0,0.0,84,0.00,,,0.00,0.0,custom,2013-06-06 11:26:00,
2013-06-06 04:36:00,57.2,52.4,29.99,NE,51,0.0,0.0,84,0.00,,,0.00,0.0,custom,2013-06-06 11:36:00,
2013-06-06 04:41:00,57.3,52.5,29.99,NE,51,0.0,0.0,84,0.00,,,0.00,0.0,custom,2013-06-06 11:41:00,
2013-06-06 04:46:00,57.2,52.4,29.99,NE,51,0.0,0.0,84,0.00,,,0.00,0.0,custom,2013-06-06 11:46:00,
2013-06-06 04:51:00,57.2,52.4,29.99,NE,51,0.0,0.0,84,0.00,,,0.00,0.0,custom,2013-06-06 11:51:00,
2013-06-06 04:56:00,57.2,52.4,30.00,NE,55,0.0,1.0,84,0.00,,,0.00,0.0,custom,2013-06-06 11:56:00,
2013-06-06 05:01:00,57.2,52.4,30.00,NE,55,0.0,0.0,84,0.00,,,0.00,0.0,custom,2013-06-06 12:01:00,
2013-06-06 05:06:00,57.2,52.4,30.00,NE,55,0.0,1.0,84,0.00,,,0.00,0.0,custom,2013-06-06 12:06:00,
2013-06-06 05:11:00,57.1,52.3,30.00,NNE,27,0.0,0.0,84,0.00,,,0.00,0.0,custom,2013-06-06 12:11:00,
2013-06-06 05:16:00,57.1,52.3,30.00,NNE,26,0.0,1.0,84,0.00,,,0.00,0.0,custom,2013-06-06 12:16:00,
2013-06-06 05:21:00,57.0,52.2,30.00,NNE,30,0.0,0.0,84,0.00,,,0.00,0.0,custom,2013-06-06 12:21:00,
2013-06-06 05:26:00,57.0,52.2,30.00,North,5,0.0,0.0,84,0.00,,,0.00,0.0,custom,2013-06-06 12:26:00,
2013-06-06 05:31:00,56.9,52.1,30.00,NNW,331,0.0,0.0,84,0.00,,,0.00,0.0,custom,2013-06-06 12:31:00,
2013-06-06 05:36:00,56.9,52.1,30.00,NNW,336,0.0,0.0,84,0.00,,,0.00,0.0,custom,2013-06-06 12:36:00,
2013-06-06 05:41:00,56.8,52.0,30.00,NE,34,0.0,0.0,84,0.00,,,0.00,0.0,custom,2013-06-06 12:41:00,
2013-06-06 05:46:00,56.8,52.0,30.00,NNE,27,0.0,0.0,84,0.00,,,0.00,0.0,custom,2013-06-06 12:46:00,
2013-06-06 05:51:00,56.8,52.0,30.00,NNE,28,0.0,0.0,84,0.00,,,0.00,0.0,custom,2013-06-06 12:51:00,
2013-06-06 05:56:00,56.8,52.0,30.00,NNE,25,0.0,0.0,84,0.00,,,0.00,0.0,custom,2013-06-06 12:56:00,
2013-06-06 06:01:00,56.8,52.3,30.00,NNE,25,0.0,0.0,85,0.00,,,0.00,0.0,custom,2013-06-06 13:01:00,
2013-06-06 06:06:00,56.8,52.3,30.00,NNE,25,0.0,0.0,85,0.00,,,0.00,5.0,custom,2013-06-06 13:06:00,
2013-06-06 06:11:00,56.8,52.0,30.00,NNE,28,0.0,0.0,84,0.00,,,0.00,7.0,custom,2013-06-06 13:11:00,
2013-06-06 06:16:00,56.8,52.3,30.00,NNE,28,0.0,0.0,85,0.00,,,0.00,9.0,custom,2013-06-06 13:16:00,
2013-06-06 06:21:00,56.8,52.0,30.00,NNE,28,0.0,1.0,84,0.00,,,0.00,11.0,custom,2013-06-06 13:21:00,
2013-06-06 06:26:00,56.8,52.0,30.00,NNE,29,0.0,0.0,84,0.00,,,0.00,14.0,custom,2013-06-06 13:26:00,
2013-06-06 06:31:00,56.8,52.0,30.00,NNE,30,0.0,0.0,84,0.00,,,0.00,14.0,custom,2013-06-06 13:31:00,
2013-06-06 06:36:00,56.8,52.3,30.00,NNE,30,0.0,0.0,85,0.00,,,0.00,16.0,custom,2013-06-06 13:36:00,
2013-06-06 06:41:00,56.8,52.3,30.00,NNE,30,0.0,0.0,85,0.00,,,0.00,19.0,custom,2013-06-06 13:41:00,
2013-06-06 06:46:00,56.9,52.4,30.00,NNE,30,0.0,0.0,85,0.00,,,0.00,21.0,custom,2013-06-06 13:46:00,
2013-06-06 06:51:00,56.9,52.4,30.00,NNE,30,0.0,0.0,85,0.00,,,0.00,26.0,custom,2013-06-06 13:51:00,
2013-06-06 06:56:00,56.9,52.4,30.00,NNE,31,0.0,0.0,85,0.00,,,0.00,26.0,custom,2013-06-06 13:56:00,
2013-06-06 07:01:00,56.9,52.4,30.00,NNE,31,0.0,0.0,85,0.00,,,0.00,26.0,custom,2013-06-06 14:01:00,
2013-06-06 07:06:00,57.0,52.5,30.00,NNE,30,0.0,0.0,85,0.00,,,0.00,32.0,custom,2013-06-06 14:06:00,
2013-06-06 07:11:00,57.0,52.5,30.00,NNE,30,0.0,0.0,85,0.00,,,0.00,39.0,custom,2013-06-06 14:11:00,
2013-06-06 07:16:00,57.1,52.6,30.00,NNE,31,0.0,0.0,85,0.00,,,0.00,42.0,custom,2013-06-06 14:16:00,
2013-06-06 07:21:00,57.1,52.3,30.00,NNE,30,0.0,0.0,84,0.00,,,0.00,44.0,custom,2013-06-06 14:21:00,
2013-06-06 07:26:00,57.2,52.7,30.00,NNE,30,0.0,0.0,85,0.00,,,0.00,46.0,custom,2013-06-06 14:26:00,
2013-06-06 07:31:00,57.2,52.4,30.00,NNE,30,0.0,0.0,84,0.00,,,0.00,51.0,custom,2013-06-06 14:31:00,
2013-06-06 07:36:00,57.3,52.5,30.00,NNE,30,0.0,0.0,84,0.00,,,0.00,60.0,custom,2013-06-06 14:36:00,
2013-06-06 07:41:00,57.4,52.6,30.00,NNE,30,0.0,0.0,84,0.00,,,0.00,70.0,custom,2013-06-06 14:41:00,
2013-06-06 07:46:00,57.5,52.7,30.00,NNE,30,0.0,0.0,84,0.00,,,0.00,77.0,custom,2013-06-06 14:46:00,
2013-06-06 07:51:00,57.7,52.9,30.00,NNE,30,0.0,0.0,84,0.00,,,0.00,84.0,custom,2013-06-06 14:51:00,
2013-06-06 07:56:00,57.8,53.0,30.01,NNE,30,0.0,0.0,84,0.00,,,0.00,84.0,custom,2013-06-06 14:56:00,
2013-06-06 08:01:00,58.0,53.2,30.01,NNE,30,0.0,0.0,84,0.00,,,0.00,95.0,custom,2013-06-06 15:01:00,
2013-06-06 08:06:00,58.0,53.2,30.01,NNE,30,0.0,0.0,84,0.00,,,0.00,102.0,custom,2013-06-06 15:06:00,
2013-06-06 08:11:00,58.2,53.1,30.01,NNE,30,0.0,0.0,83,0.00,,,0.00,107.0,custom,2013-06-06 15:11:00,
2013-06-06 08:16:00,58.3,53.2,30.01,NNE,31,0.0,0.0,83,0.00,,,0.00,105.0,custom,2013-06-06 15:16:00,
2013-06-06 08:21:00,58.4,53.3,30.01,North,350,0.0,0.0,83,0.00,,,0.00,113.0,custom,2013-06-06 15:21:00,
2013-06-06 08:26:00,58.4,53.3,30.01,North,355,0.0,0.0,83,0.00,,,0.00,132.0,custom,2013-06-06 15:26:00,
2013-06-06 08:31:00,58.5,53.4,30.01,NNE,13,0.0,0.0,83,0.00,,,0.00,141.0,custom,2013-06-06 15:31:00,
2013-06-06 08:36:00,58.7,53.2,30.01,NNE,17,0.0,0.0,82,0.00,,,0.00,146.0,custom,2013-06-06 15:36:00,
2013-06-06 08:41:00,58.9,53.4,30.01,NNW,329,0.0,0.0,82,0.00,,,0.00,155.0,custom,2013-06-06 15:41:00,
2013-06-06 08:46:00,59.0,53.5,30.01,NNW,329,0.0,0.0,82,0.00,,,0.00,167.0,custom,2013-06-06 15:46:00,
2013-06-06 08:51:00,59.0,53.2,30.01,NNW,333,0.0,0.0,81,0.00,,,0.00,169.0,custom,2013-06-06 15:51:00,
2013-06-06 08:56:00,59.1,53.3,30.01,NNW,333,0.0,0.0,81,0.00,,,0.00,178.0,custom,2013-06-06 15:56:00,
2013-06-06 09:01:00,59.4,53.6,30.02,NE,40,0.0,0.0,81,0.00,,,0.00,169.0,custom,2013-06-06 16:01:00,
2013-06-06 09:06:00,59.6,53.4,30.02,NE,40,0.0,0.0,80,0.00,,,0.00,188.0,custom,2013-06-06 16:06:00,
2013-06-06 09:11:00,59.7,53.5,30.02,North,360,0.0,0.0,80,0.00,,,0.00,230.0,custom,2013-06-06 16:11:00,
2013-06-06 09:16:00,59.9,53.7,30.02,NE,51,0.0,0.0,80,0.00,,,0.00,253.0,custom,2013-06-06 16:16:00,
2013-06-06 09:21:00,60.1,53.9,30.02,NE,51,0.0,0.0,80,0.00,,,0.00,258.0,custom,2013-06-06 16:21:00,
2013-06-06 09:26:00,60.5,54.0,30.02,NE,51,0.0,0.0,79,0.00,,,0.00,281.0,custom,2013-06-06 16:26:00,
2013-06-06 09:31:00,60.8,53.9,30.01,NE,51,0.0,0.0,78,0.00,,,0.00,267.0,custom,2013-06-06 16:31:00,
2013-06-06 09:36:00,61.2,54.3,30.01,NE,51,0.0,0.0,78,0.00,,,0.00,267.0,custom,2013-06-06 16:36:00,
2013-06-06 09:41:00,61.4,54.1,30.01,NE,51,0.0,0.0,77,0.00,,,0.00,302.0,custom,2013-06-06 16:41:00,
2013-06-06 09:46:00,61.7,54.1,30.01,NE,51,0.0,0.0,76,0.00,,,0.00,332.0,custom,2013-06-06 16:46:00,
2013-06-06 09:51:00,62.5,55.2,30.01,NNE,32,0.0,1.0,77,0.00,,,0.00,754.0,custom,2013-06-06 16:51:00,
2013-06-06 09:56:00,63.6,55.2,30.00,ENE,62,1.0,2.0,74,0.00,,,0.00,786.0,custom,2013-06-06 16:56:00,
2013-06-06 10:01:00,64.4,55.2,30.00,ENE,60,0.0,1.0,72,0.00,,,0.00,392.0,custom,2013-06-06 17:01:00,
2013-06-06 10:06:00,64.8,55.2,30.00,ENE,58,0.0,1.0,71,0.00,,,0.00,770.0,custom,2013-06-06 17:06:00,
2013-06-06 10:11:00,65.5,55.4,30.00,ENE,58,0.0,0.0,70,0.00,,,0.00,782.0,custom,2013-06-06 17:11:00,
2013-06-06 10:16:00,66.2,55.7,30.00,NNE,26,1.0,2.0,69,0.00,,,0.00,788.0,custom,2013-06-06 17:16:00,
2013-06-06 10:21:00,66.5,55.6,30.00,North,355,1.0,0.0,68,0.00,,,0.00,784.0,custom,2013-06-06 17:21:00,
2013-06-06 10:26:00,66.5,55.6,30.00,North,5,1.0,0.0,68,0.00,,,0.00,793.0,custom,2013-06-06 17:26:00,
2013-06-06 10:31:00,66.5,55.2,29.99,North,355,1.0,0.0,67,0.00,,,0.00,798.0,custom,2013-06-06 17:31:00,
2013-06-06 10:41:00,67.1,55.8,30.00,NNE,30,1.0,0.0,67,0.00,,,0.00,821.0,custom,2013-06-06 17:41:00,
2013-06-06 10:46:00,67.6,56.2,30.00,NW,317,1.0,3.0,67,0.00,,,0.00,830.0,custom,2013-06-06 17:46:00,
2013-06-06 10:51:00,67.8,55.6,30.00,NNW,344,1.0,0.0,65,0.00,,,0.00,840.0,custom,2013-06-06 17:51:00,
2013-06-06 10:56:00,67.9,56.1,29.99,NNE,13,1.0,1.0,66,0.00,,,0.00,844.0,custom,2013-06-06 17:56:00,
2013-06-06 11:01:00,68.1,56.3,29.99,NNW,339,1.0,0.0,66,0.00,,,0.00,181.0,custom,2013-06-06 18:01:00,
2013-06-06 11:06:00,68.4,56.2,29.99,WNW,297,1.0,0.0,65,0.00,,,0.00,181.0,custom,2013-06-06 18:06:00,
2013-06-06 11:11:00,68.7,56.0,29.99,SSE,153,1.0,1.0,64,0.00,,,0.00,121.0,custom,2013-06-06 18:11:00,
2013-06-06 11:16:00,68.7,56.0,29.99,NE,44,1.0,0.0,64,0.00,,,0.00,877.0,custom,2013-06-06 18:16:00,
2013-06-06 11:21:00,68.8,56.1,29.99,NE,52,1.0,0.0,64,0.00,,,0.00,847.0,custom,2013-06-06 18:21:00,
2013-06-06 11:26:00,69.2,56.5,29.98,NNE,17,1.0,0.0,64,0.00,,,0.00,900.0,custom,2013-06-06 18:26:00,
2013-06-06 11:31:00,69.6,56.9,29.98,NE,34,1.0,0.0,64,0.00,,,0.00,904.0,custom,2013-06-06 18:31:00,
2013-06-06 11:36:00,69.7,57.0,29.98,WNW,294,2.0,2.0,64,0.00,,,0.00,914.0,custom,2013-06-06 18:36:00,
2013-06-06 11:41:00,70.0,56.8,29.98,NNE,19,2.0,2.0,63,0.00,,,0.00,921.0,custom,2013-06-06 18:41:00,
2013-06-06 11:46:00,70.1,56.5,29.98,NNW,342,1.0,3.0,62,0.00,,,0.00,932.0,custom,2013-06-06 18:46:00,
2013-06-06 11:51:00,70.1,56.5,29.98,NNE,22,2.0,0.0,62,0.00,,,0.00,933.0,custom,2013-06-06 18:51:00,
2013-06-06 11:56:00,70.2,56.6,29.98,WNW,297,1.0,3.0,62,0.00,,,0.00,935.0,custom,2013-06-06 18:56:00,
2013-06-06 12:01:00,70.5,56.4,29.98,North,5,1.0,2.0,61,0.00,,,0.00,942.0,custom,2013-06-06 19:01:00,
2013-06-06 12:06:00,70.4,56.7,29.98,North,360,2.0,2.0,62,0.00,,,0.00,947.0,custom,2013-06-06 19:06:00,
2013-06-06 12:11:00,70.7,57.0,29.98,NNW,333,2.0,2.0,62,0.00,,,0.00,949.0,custom,2013-06-06 19:11:00,
2013-06-06 12:16:00,71.2,57.0,29.98,NNE,23,1.0,1.0,61,0.00,,,0.00,956.0,custom,2013-06-06 19:16:00,
2013-06-06 12:26:00,71.0,56.9,29.98,NE,49,1.0,4.0,61,0.00,,,0.00,956.0,custom,2013-06-06 19:26:00,
2013-06-06 12:31:00,70.9,56.8,29.98,WNW,296,2.0,2.0,61,0.00,,,0.00,962.0,custom,2013-06-06 19:31:00,
2013-06-06 12:36:00,71.1,57.0,29.97,NNW,341,2.0,0.0,61,0.00,,,0.00,962.0,custom,2013-06-06 19:36:00,
2013-06-06 12:41:00,71.0,56.9,29.97,NNW,344,1.0,1.0,61,0.00,,,0.00,965.0,custom,2013-06-06 19:41:00,
2013-06-06 12:46:00,71.1,57.0,29.97,ENE,71,1.0,0.0,61,0.00,,,0.00,969.0,custom,2013-06-06 19:46:00,
2013-06-06 12:51:00,71.0,56.9,29.97,NW,305,2.0,3.0,61,0.00,,,0.00,970.0,custom,2013-06-06 19:51:00,
2013-06-06 12:56:00,71.3,57.1,29.97,ENE,71,2.0,2.0,61,0.00,,,0.00,969.0,custom,2013-06-06 19:56:00,
2013-06-06 13:01:00,71.7,57.5,29.97,NW,326,1.0,1.0,61,0.00,,,0.00,967.0,custom,2013-06-06 20:01:00,
2013-06-06 13:06:00,72.2,57.5,29.96,NNW,341,1.0,5.0,60,0.00,,,0.00,965.0,custom,2013-06-06 20:06:00,
2013-06-06 13:11:00,72.4,57.7,29.96,NNE,17,2.0,2.0,60,0.00,,,0.00,969.0,custom,2013-06-06 20:11:00,
2013-06-06 13:16:00,72.5,57.8,29.96,NE,44,2.0,3.0,60,0.00,,,0.00,965.0,custom,2013-06-06 20:16:00,
2013-06-06 13:21:00,72.6,57.4,29.96,NW,321,2.0,0.0,59,0.00,,,0.00,965.0,custom,2013-06-06 20:21:00,
2013-06-06 13:26:00,72.7,57.5,29.96,ENE,65,2.0,2.0,59,0.00,,,0.00,962.0,custom,2013-06-06 20:26:00,
2013-06-06 13:31:00,73.0,57.3,29.96,NW,313,1.0,3.0,58,0.00,,,0.00,962.0,custom,2013-06-06 20:31:00,
2013-06-06 13:36:00,73.3,57.6,29.96,WNW,288,1.0,0.0,58,0.00,,,0.00,954.0,custom,2013-06-06 20:36:00,
2013-06-06 13:41:00,73.5,56.8,29.96,NNW,338,2.0,2.0,56,0.00,,,0.00,953.0,custom,2013-06-06 20:41:00,
2013-06-06 13:46:00,73.3,56.6,29.96,NNE,21,2.0,2.0,56,0.00,,,0.00,953.0,custom,2013-06-06 20:46:00,
2013-06-06 13:51:00,73.2,56.5,29.96,NE,42,2.0,0.0,56,0.00,,,0.00,946.0,custom,2013-06-06 20:51:00,
2013-06-06 13:56:00,73.2,57.0,29.96,North,355,2.0,2.0,57,0.00,,,0.00,940.0,custom,2013-06-06 20:56:00,
2013-06-06 14:01:00,73.3,56.6,29.95,NE,41,2.0,3.0,56,0.00,,,0.00,940.0,custom,2013-06-06 21:01:00,
2013-06-06 14:06:00,73.1,56.5,29.95,North,360,2.0,3.0,56,0.00,,,0.00,932.0,custom,2013-06-06 21:06:00,
2013-06-06 14:11:00,72.9,56.8,29.95,NNE,19,2.0,2.0,57,0.00,,,0.00,926.0,custom,2013-06-06 21:11:00,
2013-06-06 14:16:00,73.1,56.9,29.95,West,281,2.0,4.0,57,0.00,,,0.00,925.0,custom,2013-06-06 21:16:00,
2013-06-06 14:21:00,73.1,56.5,29.95,NNE,15,2.0,0.0,56,0.00,,,0.00,914.0,custom,2013-06-06 21:21:00,
2013-06-06 14:26:00,73.2,57.0,29.95,North,5,2.0,5.0,57,0.00,,,0.00,907.0,custom,2013-06-06 21:26:00,
2013-06-06 14:31:00,73.4,57.2,29.95,North,5,2.0,3.0,57,0.00,,,0.00,900.0,custom,2013-06-06 21:31:00,
2013-06-06 14:36:00,73.6,56.9,29.95,NNW,339,2.0,2.0,56,0.00,,,0.00,891.0,custom,2013-06-06 21:36:00,
2013-06-06 14:41:00,73.5,57.3,29.95,WNW,292,2.0,0.0,57,0.00,,,0.00,884.0,custom,2013-06-06 21:41:00,
2013-06-06 14:46:00,73.7,57.5,29.95,North,5,2.0,4.0,57,0.00,,,0.00,877.0,custom,2013-06-06 21:46:00,
2013-06-06 14:51:00,74.0,57.3,29.94,North,10,2.0,0.0,56,0.00,,,0.00,868.0,custom,2013-06-06 21:51:00,
2013-06-06 14:56:00,74.1,57.4,29.94,NW,322,2.0,2.0,56,0.00,,,0.00,858.0,custom,2013-06-06 21:56:00,
2013-06-06 15:01:00,73.9,57.2,29.94,North,355,2.0,2.0,56,0.00,,,0.00,849.0,custom,2013-06-06 22:01:00,
2013-06-06 15:06:00,73.9,56.7,29.94,NNE,20,2.0,2.0,55,0.00,,,0.00,838.0,custom,2013-06-06 22:06:00,
2013-06-06 15:11:00,73.9,57.2,29.94,NNE,15,2.0,5.0,56,0.00,,,0.00,320.0,custom,2013-06-06 22:11:00,
2013-06-06 15:16:00,73.9,57.7,29.94,NW,325,2.0,2.0,57,0.00,,,0.00,819.0,custom,2013-06-06 22:16:00,
2013-06-06 15:21:00,73.8,57.6,29.93,NNW,340,2.0,3.0,57,0.00,,,0.00,74.0,custom,2013-06-06 22:21:00,
2013-06-06 15:26:00,73.6,57.4,29.93,ENE,69,2.0,0.0,57,0.00,,,0.00,79.0,custom,2013-06-06 22:26:00,
2013-06-06 15:31:00,73.5,57.3,29.93,NNE,21,2.0,3.0,57,0.00,,,0.00,62.0,custom,2013-06-06 22:31:00,
2013-06-06 15:36:00,73.3,57.1,29.93,NW,322,2.0,2.0,57,0.00,,,0.00,63.0,custom,2013-06-06 22:36:00,
2013-06-06 15:41:00,73.3,57.6,29.93,WNW,299,2.0,3.0,58,0.00,,,0.00,70.0,custom,2013-06-06 22:41:00,
2013-06-06 15:51:00,72.8,57.6,29.92,NNW,336,2.0,2.0,59,0.00,,,0.00,142.0,custom,2013-06-06 22:51:00,
2013-06-06 15:56:00,72.9,57.7,29.92,North,10,2.0,2.0,59,0.00,,,0.00,93.0,custom,2013-06-06 22:56:00,
2013-06-06 16:01:00,72.9,57.7,29.92,North,351,1.0,3.0,59,0.00,,,0.00,62.0,custom,2013-06-06 23:01:00,
2013-06-06 16:06:00,72.7,57.5,29.92,North,350,2.0,2.0,59,0.00,,,0.00,54.0,custom,2013-06-06 23:06:00,
2013-06-06 16:11:00,72.5,57.3,29.92,NNE,21,2.0,3.0,59,0.00,,,0.00,58.0,custom,2013-06-06 23:11:00,
2013-06-06 16:16:00,72.4,57.7,29.92,NNW,336,2.0,0.0,60,0.00,,,0.00,70.0,custom,2013-06-06 23:16:00,
2013-06-06 16:21:00,72.2,57.1,29.92,NE,55,2.0,0.0,59,0.00,,,0.00,53.0,custom,2013-06-06 23:21:00,
2013-06-06 16:26:00,72.0,57.8,29.92,ENE,59,1.0,1.0,61,0.00,,,0.00,53.0,custom,2013-06-06 23:26:00,
2013-06-06 16:31:00,72.0,57.3,29.91,North,355,2.0,2.0,60,0.00,,,0.00,53.0,custom,2013-06-06 23:31:00,
2013-06-06 16:36:00,72.0,57.3,29.91,WNW,295,2.0,2.0,60,0.00,,,0.00,56.0,custom,2013-06-06 23:36:00,
2013-06-06 16:41:00,71.8,57.2,29.91,NNW,327,2.0,0.0,60,0.00,,,0.00,58.0,custom,2013-06-06 23:41:00,
2013-06-06 16:46:00,71.8,57.2,29.92,NW,319,2.0,4.0,60,0.00,,,0.00,53.0,custom,2013-06-06 23:46:00,
2013-06-06 16:51:00,71.7,57.1,29.91,NE,42,2.0,2.0,60,0.00,,,0.00,63.0,custom,2013-06-06 23:51:00,
2013-06-06 16:56:00,71.6,57.0,29.91,NW,319,1.0,1.0,60,0.00,,,0.00,49.0,custom,2013-06-06 23:56:00,
2013-06-06 17:01:00,71.3,56.7,29.91,North,360,2.0,2.0,60,0.00,,,0.00,67.0,custom,2013-06-07 00:01:00,
2013-06-06 17:06:00,71.2,56.6,29.91,ENE,64,1.0,1.0,60,0.00,,,0.00,104.0,custom,2013-06-07 00:06:00,
2013-06-06 17:11:00,71.0,56.9,29.91,WNW,302,1.0,3.0,61,0.00,,,0.00,104.0,custom,2013-06-07 00:11:00,
2013-06-06 17:21:00,70.5,56.4,29.91,NNW,348,2.0,0.0,61,0.00,,,0.00,63.0,custom,2013-06-07 00:21:00,
2013-06-06 17:31:00,70.2,56.1,29.92,NNE,24,1.0,3.0,61,0.00,,,0.00,49.0,custom,2013-06-07 00:31:00,
2013-06-06 17:36:00,69.9,55.8,29.91,NW,325,2.0,2.0,61,0.00,,,0.00,46.0,custom,2013-06-07 00:36:00,
2013-06-06 17:41:00,69.8,56.2,29.91,North,360,1.0,0.0,62,0.00,,,0.00,51.0,custom,2013-06-07 00:41:00,
2013-06-06 17:46:00,69.5,55.9,29.91,North,360,1.0,3.0,62,0.00,,,0.00,42.0,custom,2013-06-07 00:46:00,
2013-06-06 17:51:00,69.3,56.2,29.91,ENE,67,1.0,2.0,63,0.00,,,0.00,69.0,custom,2013-06-07 00:51:00,
2013-06-06 17:56:00,69.1,56.0,29.91,NNE,13,1.0,0.0,63,0.00,,,0.00,40.0,custom,2013-06-07 00:56:00,
2013-06-06 18:01:00,68.9,55.3,29.91,NNE,28,1.0,1.0,62,0.00,,,0.00,39.0,custom,2013-06-07 01:01:00,
2013-06-06 18:06:00,68.6,55.5,29.91,NE,44,2.0,0.0,63,0.00,,,0.00,39.0,custom,2013-06-07 01:06:00,
2013-06-06 18:11:00,68.3,55.6,29.91,NNE,32,2.0,2.0,64,0.00,,,0.00,37.0,custom,2013-06-07 01:11:00,
2013-06-06 18:16:00,68.0,55.4,29.91,ENE,60,2.0,0.0,64,0.00,,,0.00,37.0,custom,2013-06-07 01:16:00,
2013-06-06 18:21:00,67.7,55.9,29.91,NE,34,1.0,2.0,66,0.00,,,0.00,35.0,custom,2013-06-07 01:21:00,
2013-06-06 18:26:00,67.6,55.8,29.92,NNE,18,1.0,2.0,66,0.00,,,0.00,35.0,custom,2013-06-07 01:26:00,
2013-06-06 18:31:00,67.5,56.1,29.92,NNW,331,1.0,0.0,67,0.00,,,0.00,33.0,custom,2013-06-07 01:31:00,
2013-06-06 18:36:00,67.4,55.6,29.92,WNW,294,1.0,0.0,66,0.00,,,0.00,33.0,custom,2013-06-07 01:36:00,
2013-06-06 18:41:00,67.2,55.9,29.92,NE,55,1.0,0.0,67,0.00,,,0.00,33.0,custom,2013-06-07 01:41:00,
2013-06-06 18:46:00,67.1,55.8,29.91,North,9,1.0,4.0,67,0.00,,,0.00,32.0,custom,2013-06-07 01:46:00,
2013-06-06 18:51:00,66.8,55.9,29.92,NE,36,1.0,0.0,68,0.00,,,0.00,32.0,custom,2013-06-07 01:51:00,
2013-06-06 18:56:00,66.6,56.1,29.92,WNW,303,1.0,1.0,69,0.00,,,0.00,30.0,custom,2013-06-07 01:56:00,
2013-06-06 19:01:00,66.4,55.9,29.92,WNW,283,1.0,5.0,69,0.00,,,0.00,30.0,custom,2013-06-07 02:01:00,
2013-06-06 19:06:00,66.0,55.9,29.92,NNE,22,1.0,0.0,70,0.00,,,0.00,28.0,custom,2013-06-07 02:06:00,
2013-06-06 19:11:00,65.7,55.6,29.92,NNW,338,1.0,0.0,70,0.00,,,0.00,28.0,custom,2013-06-07 02:11:00,
2013-06-06 19:16:00,65.3,55.6,29.92,NNE,32,1.0,1.0,71,0.00,,,0.00,26.0,custom,2013-06-07 02:16:00,
2013-06-06 19:21:00,65.0,55.7,29.92,NE,53,1.0,1.0,72,0.00,,,0.00,26.0,custom,2013-06-07 02:21:00,
2013-06-06 19:26:00,64.7,55.5,29.92,NW,309,1.0,1.0,72,0.00,,,0.00,25.0,custom,2013-06-07 02:26:00,
2013-06-06 19:31:00,64.4,55.6,29.93,WNW,296,1.0,2.0,73,0.00,,,0.00,25.0,custom,2013-06-07 02:31:00,
2013-06-06 19:36:00,64.0,55.5,29.92,NNE,19,1.0,1.0,74,0.00,,,0.00,23.0,custom,2013-06-07 02:36:00,
2013-06-06 19:41:00,63.7,55.3,29.92,NNW,341,1.0,0.0,74,0.00,,,0.00,21.0,custom,2013-06-07 02:41:00,
2013-06-06 19:46:00,63.4,55.3,29.93,NNW,343,1.0,0.0,75,0.00,,,0.00,21.0,custom,2013-06-07 02:46:00,
2013-06-06 19:51:00,63.2,55.5,29.93,ENE,69,1.0,0.0,76,0.00,,,0.00,19.0,custom,2013-06-07 02:51:00,
2013-06-06 19:56:00,63.1,55.4,29.93,WNW,298,0.0,0.0,76,0.00,,,0.00,19.0,custom,2013-06-07 02:56:00,
2013-06-06 20:01:00,63.0,55.3,29.93,NNW,327,0.0,0.0,76,0.00,,,0.00,18.0,custom,2013-06-07 03:01:00,
2013-06-06 20:06:00,62.9,55.2,29.93,NNW,327,0.0,0.0,76,0.00,,,0.00,14.0,custom,2013-06-07 03:06:00,
2013-06-06 20:11:00,62.9,55.2,29.93,NNW,327,0.0,0.0,76,0.00,,,0.00,12.0,custom,2013-06-07 03:11:00,
2013-06-06 20:16:00,62.8,55.1,29.93,North,360,0.0,0.0,76,0.00,,,0.00,11.0,custom,2013-06-07 03:16:00,
2013-06-06 20:21:00,62.8,55.5,29.93,North,5,0.0,0.0,77,0.00,,,0.00,7.0,custom,2013-06-07 03:21:00,
2013-06-06 20:26:00,62.6,55.3,29.93,NW,319,0.0,0.0,77,0.00,,,0.00,5.0,custom,2013-06-07 03:26:00,
2013-06-06 20:31:00,62.5,55.2,29.93,NW,319,0.0,0.0,77,0.00,,,0.00,0.0,custom,2013-06-07 03:31:00,
2013-06-06 20:36:00,62.3,55.0,29.93,NNE,30,0.0,0.0,77,0.00,,,0.00,0.0,custom,2013-06-07 03:36:00,
2013-06-06 20:41:00,62.2,54.9,29.94,WNW,302,0.0,1.0,77,0.00,,,0.00,0.0,custom,2013-06-07 03:41:00,
2013-06-06 20:46:00,62.0,54.3,29.94,North,355,0.0,0.0,76,0.00,,,0.00,0.0,custom,2013-06-07 03:46:00,
2013-06-06 20:51:00,61.8,54.5,29.94,North,355,0.0,0.0,77,0.00,,,0.00,0.0,custom,2013-06-07 03:51:00,
2013-06-06 20:56:00,61.7,54.4,29.94,North,355,0.0,0.0,77,0.00,,,0.00,0.0,custom,2013-06-07 03:56:00,
2013-06-06 21:01:00,61.5,54.2,29.94,North,355,0.0,0.0,77,0.00,,,0.00,0.0,custom,2013-06-07 04:01:00,
2013-06-06 21:06:00,61.3,54.0,29.94,North,355,0.0,0.0,77,0.00,,,0.00,0.0,custom,2013-06-07 04:06:00,
2013-06-06 21:11:00,61.1,54.2,29.94,NNW,333,0.0,3.0,78,0.00,,,0.00,0.0,custom,2013-06-07 04:11:00,
2013-06-06 21:16:00,60.8,53.9,29.94,NNW,345,1.0,0.0,78,0.00,,,0.00,0.0,custom,2013-06-07 04:16:00,
2013-06-06 21:21:00,60.6,54.0,29.95,NE,55,0.0,0.0,79,0.00,,,0.00,0.0,custom,2013-06-07 04:21:00,
2013-06-06 21:26:00,60.4,53.9,29.95,NW,321,0.0,0.0,79,0.00,,,0.00,0.0,custom,2013-06-07 04:26:00,
2013-06-06 21:31:00,60.2,54.0,29.95,North,355,0.0,0.0,80,0.00,,,0.00,0.0,custom,2013-06-07 04:31:00,
2013-06-06 21:36:00,60.0,53.8,29.95,ENE,72,0.0,0.0,80,0.00,,,0.00,0.0,custom,2013-06-07 04:36:00,
2013-06-06 21:41:00,59.9,54.1,29.96,ENE,72,0.0,0.0,81,0.00,,,0.00,0.0,custom,2013-06-07 04:41:00,
2013-06-06 21:46:00,59.7,53.9,29.95,WNW,283,0.0,0.0,81,0.00,,,0.00,0.0,custom,2013-06-07 04:46:00,
2013-06-06 21:51:00,59.5,53.7,29.96,WNW,283,0.0,0.0,81,0.00,,,0.00,0.0,custom,2013-06-07 04:51:00,
2013-06-06 21:56:00,59.3,53.5,29.95,WNW,283,0.0,0.0,81,0.00,,,0.00,0.0,custom,2013-06-07 04:56:00,
2013-06-06 22:01:00,59.1,53.3,29.96,NE,45,0.0,0.0,81,0.00,,,0.00,0.0,custom,2013-06-07 05:01:00,
2013-06-06 22:06:00,59.0,53.5,29.96,NE,41,0.0,0.0,82,0.00,,,0.00,0.0,custom,2013-06-07 05:06:00,
2013-06-06 22:11:00,59.0,53.5,29.96,NE,42,0.0,0.0,82,0.00,,,0.00,0.0,custom,2013-06-07 05:11:00,
2013-06-06 22:16:00,59.0,53.5,29.96,NE,42,0.0,0.0,82,0.00,,,0.00,0.0,custom,2013-06-07 05:16:00,
2013-06-06 22:21:00,59.0,53.5,29.96,NE,42,0.0,0.0,82,0.00,,,0.00,0.0,custom,2013-06-07 05:21:00,
2013-06-06 22:26:00,58.8,53.3,29.96,NE,42,0.0,0.0,82,0.00,,,0.00,0.0,custom,2013-06-07 05:26:00,
2013-06-06 22:31:00,58.7,53.2,29.96,NE,42,0.0,0.0,82,0.00,,,0.00,0.0,custom,2013-06-07 05:31:00,
2013-06-06 22:36:00,58.5,53.4,29.96,NE,42,0.0,0.0,83,0.00,,,0.00,0.0,custom,2013-06-07 05:36:00,
2013-06-06 22:41:00,58.4,53.3,29.95,NE,42,0.0,0.0,83,0.00,,,0.00,0.0,custom,2013-06-07 05:41:00,
2013-06-06 22:46:00,58.2,53.1,29.95,NE,41,0.0,0.0,83,0.00,,,0.00,0.0,custom,2013-06-07 05:46:00,
2013-06-06 22:51:00,58.1,53.0,29.96,NE,42,0.0,0.0,83,0.00,,,0.00,0.0,custom,2013-06-07 05:51:00,
2013-06-06 22:56:00,58.0,52.9,29.96,NE,41,0.0,0.0,83,0.00,,,0.00,0.0,custom,2013-06-07 05:56:00,
2013-06-06 23:01:00,57.8,52.7,29.96,NE,42,0.0,0.0,83,0.00,,,0.00,0.0,custom,2013-06-07 06:01:00,
2013-06-06 23:06:00,57.7,52.6,29.96,NE,42,0.0,0.0,83,0.00,,,0.00,0.0,custom,2013-06-07 06:06:00,
2013-06-06 23:11:00,57.5,52.4,29.96,NE,42,0.0,0.0,83,0.00,,,0.00,0.0,custom,2013-06-07 06:11:00,
2013-06-06 23:16:00,57.4,52.3,29.96,NE,42,0.0,0.0,83,0.00,,,0.00,0.0,custom,2013-06-07 06:16:00,
2013-06-06 23:21:00,57.3,52.5,29.96,NE,41,0.0,0.0,84,0.00,,,0.00,0.0,custom,2013-06-07 06:21:00,
2013-06-06 23:26:00,57.2,52.7,29.96,NE,42,0.0,0.0,85,0.00,,,0.00,0.0,custom,2013-06-07 06:26:00,
2013-06-06 23:31:00,57.1,52.6,29.96,NE,42,0.0,0.0,85,0.00,,,0.00,0.0,custom,2013-06-07 06:31:00,
2013-06-06 23:36:00,57.1,52.6,29.96,WNW,283,0.0,1.0,85,0.00,,,0.00,0.0,custom,2013-06-07 06:36:00,
2013-06-06 23:41:00,57.0,52.5,29.96,WNW,283,0.0,0.0,85,0.00,,,0.00,0.0,custom,2013-06-07 06:41:00,
2013-06-06 23:46:00,56.9,52.4,29.96,WNW,283,0.0,0.0,85,0.00,,,0.00,0.0,custom,2013-06-07 06:46:00,
2013-06-06 23:51:00,56.8,52.3,29.96,WNW,284,0.0,0.0,85,0.00,,,0.00,0.0,custom,2013-06-07 06:51:00,
2013-06-06 23:56:00,56.7,52.2,29.96,WNW,284,0.0,0.0,85,0.00,,,0.00,0.0,custom,2013-06-07 06:56:00,